This is the latest recevied weather packets stored in our database for station/object WD4DAN-13. If no packets are shown the sender has not sent any weather packets the latest 10 day(s).
| Time | Temp. | Humidity | Pressure | Rain* | Wind** | Luminosity | Snow |
|---|---|---|---|---|---|---|---|
| 1777948047 | 17.22° C | 65% | - | 0 mm | - | - | - |
| 1777947744 | 17.78° C | 62% | - | 0 mm | - | - | - |
| 1777947440 | 17.22° C | 62% | - | 0 mm | - | - | - |
| 1777947138 | 17.22° C | 69% | - | 0 mm | - | - | - |
| 1777946833 | 17.22° C | 69% | - | 0 mm | - | - | - |
| 1777946529 | 17.78° C | 67% | - | 0 mm | - | - | - |
| 1777946226 | 17.78° C | 65% | - | 0 mm | - | - | - |
| 1777945923 | 18.33° C | 64% | - | 0 mm | - | - | - |
| 1777945620 | 18.89° C | 58% | - | 0 mm | - | - | - |
| 1777945317 | 18.89° C | 56% | - | 0 mm | - | - | - |
| 1777945014 | 18.89° C | 61% | - | 0 mm | - | - | - |
| 1777944711 | 18.89° C | 61% | - | 0 mm | - | - | - |
| 1777944409 | 19.44° C | 60% | - | 0 mm | - | - | - |
| 1777944107 | 18.89° C | 58% | - | 0 mm | - | - | - |
| 1777943802 | 18.89° C | 61% | - | 0 mm | - | - | - |
| 1777943500 | 18.89° C | 59% | - | 0 mm | - | - | - |
| 1777943200 | 19.44° C | 58% | - | 0 mm | - | - | - |
| 1777942897 | 19.44° C | 55% | - | 0 mm | - | - | - |
| 1777942592 | 20° C | 57% | - | 0 mm | - | - | - |
| 1777942290 | 20° C | 53% | - | 0 mm | - | - | - |
| 1777941987 | 20.56° C | 55% | - | 0 mm | - | - | - |
| 1777941684 | 20.56° C | 55% | - | 0 mm | - | - | - |
| 1777941381 | 21.11° C | 53% | - | 0 mm | - | - | - |
| 1777941079 | 21.67° C | 52% | - | 0 mm | - | - | - |
| 1777940774 | 21.67° C | 49% | - | 0 mm | - | - | - |
* Rain latest hour (hover to see other rain measurements)
** Current wind speed in m/s (hover to see current wind gust speed)